Faribault, MN

4:17 AM CDT on September 30, 2016 (GMT -0500)
Faribault Municipal

Weather History for KFBL - November, 2014

Change the Weather History Date:

Saturday, November 22, 2014

  Actual Average Record
Temperature  
Mean Temperature 38 °F -  
Max Temperature 44 °F 37 °F 68 °F (1990)
Min Temperature 33 °F 20 °F 3 °F (1985)
Degree Days  
Heating Degree Days 26    
Moisture  
Dew Point 35 °F    
Average Humidity 94    
Maximum Humidity 100    
Minimum Humidity 81    
Precipitation  
Precipitation 0.00 in - - ()
Sea Level Pressure  
Sea Level Pressure 29.72 in    
Wind  
Wind Speed 10 mph (South)    
Max Wind Speed 14 mph    
Max Gust Speed 21 mph    
Visibility 2 miles    
Events      
Averages and records for this station are not official NWS values.
T = Trace of Precipitation, MM = Missing Value Source: NWS Daily Summary

Daily Weather History Graph

Daily Weather History Graph

Search for Another Location

Airport or City:

Trip Planner

Search our weather history database for the weather conditions in past years. The results will help you decide how hot, cold, wet, or windy it might be!

Date:

Astronomy

Nov. 22, 2014 Rise Set
Actual Time 7:18 AM CST 4:40 PM CST
Civil Twilight 6:46 AM CST 5:12 PM CST
Nautical Twilight 6:10 AM CST 5:47 PM CST
Astronomical Twilight 5:36 AM CST 6:22 PM CST
Moon 7:13 AM CST (11/22) 5:12 PM CST (11/22)
Length of Visible Light 10h 25m
Length of Day
9h 21m
New Moon, 0% of the Moon is Illuminated
Nov 22
New Moon
Nov 29
First Quarter
Dec 6
Full
Dec 14
Last Quarter
Dec 21
New

Hourly Weather History & Observations

Time (CST) Temp. Windchill Dew Point Humidity Pressure Visibility Wind Dir Wind Speed Gust Speed Precip Events Conditions
12:14 AM 35.6 °F 27.5 °F 30.2 °F 81% 29.90 in 5.0 mi South 11.5 mph 20.7 mph N/A   Overcast
12:33 AM 35.6 °F 27.1 °F 32.0 °F 87% 29.89 in 5.0 mi South 12.7 mph 20.7 mph N/A   Overcast
12:54 AM 35.6 °F 27.5 °F 32.0 °F 87% 29.88 in 4.0 mi South 11.5 mph 18.4 mph N/A   Overcast
1:14 AM 35.6 °F 27.5 °F 33.8 °F 93% 29.88 in 3.0 mi South 11.5 mph 19.6 mph N/A   Overcast
1:34 AM 35.6 °F 26.6 °F 33.8 °F 93% 29.87 in 3.0 mi South 13.8 mph 17.3 mph N/A   Overcast
1:54 AM 35.6 °F 28.0 °F 33.8 °F 93% 29.86 in 3.0 mi South 10.4 mph 18.4 mph N/A   Overcast
2:13 AM 35.6 °F 27.1 °F 33.8 °F 93% 29.86 in 3.0 mi South 12.7 mph 18.4 mph N/A   Overcast
2:34 AM 35.6 °F 28.0 °F 33.8 °F 93% 29.86 in 4.0 mi SSW 10.4 mph 17.3 mph N/A   Overcast
2:54 AM 35.6 °F 27.1 °F 33.8 °F 93% 29.86 in 4.0 mi South 12.7 mph 17.3 mph N/A   Overcast
3:14 AM 35.6 °F 28.6 °F 33.8 °F 93% 29.84 in 4.0 mi South 9.2 mph 18.4 mph N/A   Overcast
3:34 AM 35.6 °F 27.5 °F 33.8 °F 93% 29.84 in 3.0 mi SSW 11.5 mph 18.4 mph N/A   Overcast
3:54 AM 35.6 °F 28.0 °F 33.8 °F 93% 29.84 in 3.0 mi SSW 10.4 mph 16.1 mph N/A   Overcast
4:14 AM 35.6 °F 28.6 °F 33.8 °F 93% 29.83 in 2.5 mi South 9.2 mph - N/A   Overcast
4:34 AM 35.6 °F 28.0 °F 33.8 °F 93% 29.83 in 1.8 mi South 10.4 mph - N/A   Overcast
4:53 AM 35.6 °F 28.0 °F 33.8 °F 93% 29.83 in 1.5 mi South 10.4 mph 18.4 mph N/A   Overcast
5:14 AM 35.6 °F 27.5 °F 33.8 °F 93% 29.82 in 1.0 mi South 11.5 mph - N/A   Overcast
5:34 AM 35.6 °F 27.1 °F 33.8 °F 93% 29.82 in 1.0 mi South 12.7 mph 17.3 mph N/A   Overcast
5:53 AM 35.6 °F 28.6 °F 33.8 °F 93% 29.81 in 1.0 mi South 9.2 mph 17.3 mph N/A   Overcast
6:14 AM 35.6 °F 28.6 °F 33.8 °F 93% 29.81 in 1.0 mi South 9.2 mph - N/A   Overcast
6:34 AM 35.6 °F 28.0 °F 33.8 °F 93% 29.81 in 1.2 mi SSW 10.4 mph - N/A   Overcast
6:54 AM 35.6 °F 27.5 °F 33.8 °F 93% 29.80 in 1.5 mi SSW 11.5 mph - N/A   Overcast
7:14 AM 35.6 °F 27.1 °F 33.8 °F 93% 29.80 in 1.8 mi South 12.7 mph 16.1 mph N/A   Overcast
7:34 AM 35.6 °F 28.0 °F 33.8 °F 93% 29.80 in 2.0 mi SSW 10.4 mph - N/A   Overcast
7:54 AM 35.6 °F 27.1 °F 33.8 °F 93% 29.79 in 1.2 mi SSW 12.7 mph 16.1 mph N/A   Overcast
8:14 AM 33.8 °F 24.8 °F 33.8 °F 100% 29.79 in 1.2 mi South 12.7 mph 17.3 mph N/A   Overcast
8:34 AM 33.8 °F 25.8 °F 33.8 °F 100% 29.79 in 1.0 mi South 10.4 mph - N/A   Overcast
8:54 AM 35.6 °F 29.9 °F 33.8 °F 93% 29.79 in 1.0 mi South 6.9 mph - N/A   Overcast
9:14 AM 35.6 °F 28.6 °F 33.8 °F 93% 29.77 in 1.0 mi SSW 9.2 mph - N/A   Overcast
9:34 AM 35.6 °F 28.0 °F 33.8 °F 93% 29.77 in 1.2 mi SSW 10.4 mph - N/A   Overcast
9:54 AM 35.6 °F 28.6 °F 33.8 °F 93% 29.77 in 1.5 mi SSW 9.2 mph - N/A   Overcast
10:14 AM 35.6 °F 28.0 °F 33.8 °F 93% 29.77 in 1.5 mi SSW 10.4 mph - N/A   Overcast
10:34 AM 35.6 °F 29.2 °F 33.8 °F 93% 29.76 in 1.5 mi SSW 8.1 mph - N/A   Overcast
10:54 AM 35.6 °F 29.2 °F 33.8 °F 93% 29.76 in 1.8 mi SSW 8.1 mph - N/A   Overcast
11:14 AM 35.6 °F 29.2 °F 33.8 °F 93% 29.75 in 2.0 mi SSW 8.1 mph - N/A   Overcast
11:33 AM 35.6 °F 30.7 °F 33.8 °F 93% 29.74 in 2.0 mi SSW 5.8 mph - N/A   Overcast
11:54 AM 35.6 °F 29.2 °F 33.8 °F 93% 29.73 in 1.8 mi SSW 8.1 mph - N/A   Overcast
12:14 PM 35.6 °F 29.9 °F 33.8 °F 93% 29.72 in 2.0 mi South 6.9 mph - N/A   Overcast
12:33 PM 35.6 °F 29.2 °F 33.8 °F 93% 29.71 in 2.0 mi South 8.1 mph - N/A   Overcast
12:54 PM 35.6 °F 28.6 °F 33.8 °F 93% 29.70 in 2.5 mi South 9.2 mph - N/A   Overcast
1:14 PM 35.6 °F 30.7 °F 33.8 °F 93% 29.70 in 2.0 mi South 5.8 mph - N/A   Overcast
1:34 PM 35.6 °F 28.0 °F 33.8 °F 93% 29.69 in 2.0 mi South 10.4 mph - N/A   Overcast
1:54 PM 35.6 °F 27.5 °F 33.8 °F 93% 29.69 in 2.0 mi South 11.5 mph - N/A   Overcast
2:13 PM 35.6 °F 28.0 °F 33.8 °F 93% 29.69 in 2.5 mi South 10.4 mph 16.1 mph N/A   Overcast
2:34 PM 35.6 °F 28.0 °F 33.8 °F 93% 29.68 in 2.0 mi South 10.4 mph - N/A   Overcast
2:54 PM 35.6 °F 28.0 °F 35.6 °F 100% 29.67 in 2.5 mi South 10.4 mph - N/A   Overcast
3:14 PM 35.6 °F 30.7 °F 35.6 °F 100% 29.67 in 2.5 mi South 5.8 mph - N/A   Overcast
3:53 PM 35.6 °F 29.2 °F 35.6 °F 100% 29.67 in 2.5 mi South 8.1 mph - N/A   Overcast
4:14 PM 35.6 °F 30.7 °F 35.6 °F 100% 29.67 in 1.5 mi South 5.8 mph - N/A   Overcast
4:34 PM 35.6 °F 29.9 °F 35.6 °F 100% 29.65 in 1.0 mi South 6.9 mph - N/A   Overcast
4:54 PM 35.6 °F 30.7 °F 35.6 °F 100% 29.64 in 1.2 mi SSE 5.8 mph - N/A   Overcast
5:14 PM 37.4 °F 32.1 °F 35.6 °F 93% 29.63 in 0.8 mi SSE 6.9 mph - N/A   Overcast
5:34 PM 37.4 °F 31.4 °F 35.6 °F 93% 29.62 in 1.2 mi SSE 8.1 mph - N/A   Overcast
5:54 PM 37.4 °F 32.1 °F 35.6 °F 93% 29.61 in 2.0 mi SSE 6.9 mph - N/A   Overcast
6:14 PM 37.4 °F 31.4 °F 37.4 °F 100% 29.61 in 2.0 mi SSE 8.1 mph - N/A   Overcast
6:34 PM 37.4 °F 31.4 °F 37.4 °F 100% 29.61 in 2.5 mi SSE 8.1 mph 16.1 mph N/A   Overcast
6:54 PM 37.4 °F 31.4 °F 37.4 °F 100% 29.61 in 2.0 mi SSE 8.1 mph - N/A   Overcast
7:14 PM 37.4 °F 30.3 °F 37.4 °F 100% 29.60 in 2.0 mi SSE 10.4 mph - N/A   Overcast
7:34 PM 39.2 °F 32.5 °F 37.4 °F 93% 29.59 in 1.8 mi SSE 10.4 mph - N/A   Overcast
7:54 PM 39.2 °F 32.5 °F 37.4 °F 93% 29.58 in 2.0 mi SSE 10.4 mph - N/A   Overcast
8:14 PM 39.2 °F 35.0 °F 37.4 °F 93% 29.57 in 3.0 mi SSE 5.8 mph - N/A   Scattered Clouds
8:34 PM 39.2 °F 33.6 °F 39.2 °F 100% 29.57 in 4.0 mi SSE 8.1 mph - N/A   Scattered Clouds
8:54 PM 41.0 °F 34.7 °F 39.2 °F 93% 29.57 in 5.0 mi SSE 10.4 mph - N/A   Mostly Cloudy
9:14 PM 41.0 °F 35.8 °F 39.2 °F 93% 29.56 in 5.0 mi SSE 8.1 mph 16.1 mph N/A   Overcast
9:34 PM 41.0 °F 36.4 °F 39.2 °F 93% 29.55 in 5.0 mi SSE 6.9 mph - N/A   Overcast
9:53 PM 42.8 °F 37.0 °F 39.2 °F 87% 29.54 in 5.0 mi SE 10.4 mph - N/A   Overcast
10:14 PM 42.8 °F 36.6 °F 41.0 °F 93% 29.53 in 5.0 mi SSE 11.5 mph - N/A   Overcast
10:34 PM 44.6 °F 38.8 °F 42.8 °F 93% 29.54 in 5.0 mi South 11.5 mph 16.1 mph N/A   Overcast
10:54 PM 44.6 °F 39.7 °F 42.8 °F 93% 29.53 in 5.0 mi South 9.2 mph - N/A   Overcast
11:14 PM 44.6 °F 39.7 °F 42.8 °F 93% 29.53 in 3.0 mi South 9.2 mph - N/A   Overcast
11:34 PM 44.6 °F 40.2 °F 44.6 °F 100% 29.53 in 3.0 mi South 8.1 mph - N/A   Overcast
11:54 PM 44.6 °F 40.7 °F 44.6 °F 100% 29.52 in 3.0 mi South 6.9 mph - N/A   Overcast